FLOCK 2K-39

Last updated on Wed Feb 14 2018 16:20:52 GMT+0000 (Coordinated Universal Time)

1 42866U 17042AT 18044.79574436 .00007205 00000-0 20975-3 0 9992 2 42866 96.9928 307.6270 0010324 189.8633 170.2411 15.35642101 32698

Satellite not in orbit

FLOCK 2K-39